Weather History for St. Johns, AZ

Change the Weather History Date:

Monday, November 21, 2011

  Actual Average (KSOW) Record (KSOW)
Temperature  
Mean Temperature 37 °F -  
Max Temperature 46 °F 51 °F 68 °F (1966)
Min Temperature 28 °F 31 °F 4 °F (1975)
Degree Days  
Heating Degree Days 28    
Moisture  
Dew Point 33 °F    
Average Humidity 84    
Maximum Humidity 93    
Minimum Humidity 72    
Precipitation  
Precipitation 0.11 in - - ()
Sea Level Pressure  
Sea Level Pressure 30.08 in    
Wind  
Wind Speed 4 mph (SSW)    
Max Wind Speed 23 mph    
Max Gust Speed 29 mph    
Visibility 9 miles    
Events Rain    
Averages and records for this station are not official NWS values.
T = Trace of Precipitation, MM = Missing Value Source: NWS Daily Summary

Daily Weather History Graph

Daily Weather History Graph

Search for Another Location

Airport:

Trip Planner

Search our weather history database for the weather conditions in past years. The results will help you decide how hot, cold, wet, or windy it might be!

Date:

Astronomy

Nov. 21, 2011 Rise Set
Actual Time 6:56 AM MST 5:09 PM MST
Civil Twilight 6:29 AM MST 5:36 PM MST
Nautical Twilight 5:58 AM MST 6:07 PM MST
Astronomical Twilight 5:28 AM MST 6:37 PM MST
Moon 2:47 AM MST (11/21) 2:27 PM MST (11/21)
Length of Visible Light 11h 07m
Length of Day
10h 13m
Waning Crescent, 17% of the Moon is Illuminated
Nov 21
Waning Crescent
Nov 24
New
Dec 2
First Quarter
Dec 10
Full
Dec 17
Last Quarter

Hourly Weather History & Observations

Time (MST) Temp. Windchill Dew Point Humidity Pressure Visibility Wind Dir Wind Speed Gust Speed Precip Events Conditions
12:54 AM 35.1 °F - 27.0 °F 72% 29.95 in 10.0 mi Calm Calm - N/A   Clear
1:54 AM 30.9 °F 27.5 °F 24.1 °F 76% 29.94 in 10.0 mi WNW 3.5 mph - N/A   Clear
2:54 AM 32.0 °F - 26.1 °F 79% 29.95 in 10.0 mi Calm Calm - N/A   Scattered Clouds
3:54 AM 32.0 °F 28.7 °F 26.1 °F 79% 29.95 in 10.0 mi South 3.5 mph - N/A   Partly Cloudy
4:54 AM 32.0 °F - 27.0 °F 82% 29.94 in 10.0 mi Calm Calm - N/A   Clear
5:54 AM 28.9 °F 23.9 °F 25.0 °F 85% 29.99 in 10.0 mi NW 4.6 mph - N/A   Clear
6:54 AM 32.0 °F - 26.1 °F 79% 30.01 in 10.0 mi Calm Calm - N/A   Overcast
7:54 AM 33.1 °F 30.0 °F 28.9 °F 85% 30.03 in 5.0 mi WSW 3.5 mph - 0.01 in Rain Light Rain
8:21 AM 39.2 °F 30.8 °F 37.4 °F 93% 30.10 in 8.0 mi WSW 15.0 mph - 0.02 in Rain Light Rain
8:54 AM 39.9 °F 33.9 °F 37.0 °F 89% 30.04 in 6.0 mi SW 9.2 mph - 0.03 in Rain Light Rain
9:18 AM 41.0 °F 35.8 °F 37.4 °F 87% 30.10 in 10.0 mi SE 8.1 mph - 0.01 in   Mostly Cloudy
9:54 AM 41.0 °F 36.4 °F 39.0 °F 93% 30.04 in 10.0 mi SSE 6.9 mph - 0.01 in   Mostly Cloudy
10:54 AM 46.4 °F 42.4 °F 39.2 °F 76% 30.10 in 10.0 mi SSW 8.1 mph - N/A   Clear
3:23 PM 42.8 °F 41.1 °F 37.4 °F 81% 30.10 in 9.0 mi SSE 3.5 mph - 0.03 in Rain Light Rain
3:54 PM 45.0 °F - 37.9 °F 76% 30.06 in 10.0 mi Calm Calm - 0.03 in   Unknown
4:54 PM 43.0 °F 33.8 °F 37.0 °F 80% 30.10 in 10.0 mi WSW 23.0 mph 28.8 mph 0.00 in Rain Light Rain
5:08 PM 41.0 °F 34.7 °F 37.4 °F 87% 30.15 in 6.0 mi West 10.4 mph - 0.02 in Rain Light Rain
5:26 PM 42.8 °F - 37.4 °F 81% 30.16 in 10.0 mi Calm Calm - 0.03 in Rain Light Rain
5:54 PM 41.0 °F 36.4 °F 37.9 °F 89% 30.13 in 10.0 mi South 6.9 mph - 0.03 in   Mostly Cloudy
6:54 PM 39.9 °F 35.1 °F 37.0 °F 89% 30.15 in 10.0 mi SSW 6.9 mph - 0.00 in   Mostly Cloudy
7:54 PM 39.0 °F 34.0 °F 35.1 °F 86% 30.19 in 10.0 mi SSW 6.9 mph - N/A   Mostly Cloudy
8:54 PM 39.0 °F 32.8 °F 36.0 °F 89% 30.18 in 10.0 mi SSW 9.2 mph - N/A   Scattered Clouds
9:54 PM 37.0 °F 31.6 °F 34.0 °F 89% 30.20 in 10.0 mi SSW 6.9 mph - N/A   Clear
10:54 PM 35.1 °F 32.2 °F 33.1 °F 92% 30.21 in 10.0 mi SSE 3.5 mph - N/A   Clear
11:54 PM 35.1 °F - 32.0 °F 89% 30.22 in 10.0 mi Calm Calm - N/A   Clear